Vertical_Velocity
-0 -1 -3 -1 1 1 -1 -2 2 2 3 -0 1 1 4 6 2 -2 -6 -1 -2 3 -2 4 -3 1 3 -1 -0 1 -6 -0 1 -1 -2 5 -2 1 0 -4 2 1 0 -1 -1
-2 1 1 -5 3 0 -3 1 3 3 1 -1 2 1 2 5 -3 -2 0 -1 -1 2 -2 -1 -2 6 1 -2 -1 -6 -3 -0 1 0 -1 0 -5 -3 -0 1 2 -2 -1 -1 1
-1 -1 2 -2 1 -4 0 1 1 2 -3 -3 0 -1 -0 3 1 -3 1 -2 1 -3 2 -1 -1 7 -2 -2 -1 1 -2 -0 -0 1 -2 -2 2 -1 -1 1 -6 -11 -4 -1 -1
0 2 -3 3 -3 -5 1 2 -1 2 -4 2 1 4 0 2 -5 -2 -0 -2 1 -3 3 -1 -1 1 -2 -1 2 -6 1 -0 0 4 1 -2 1 1 -0 -4 -1 -2 -1 -1 -3
-4 4 2 -3 -3 -2 3 -0 -3 -0 -3 2 0 -0 -0 -2 -3 -1 -0 -1 -1 -1 -2 -2 -0 -0 -2 -2 0 -3 0 -1 0 1 2 1 -1 -5 -5 3 -1 -0 2 -0 0
1 -2 -3 -1 1 1 -2 -1 -3 -5 -0 -2 0 2 1 -0 -3 1 -2 1 -1 -1 0 -1 -0 2 -4 -1 -2 1 -1 -1 -1 -0 -1 -2 -1 1 -1 3 1 -1 -1 0 -1
-0 -2 -1 -1 1 -1 1 -2 1 -1 -3 -0 -2 4 -0 -2 -4 2 -5 -3 -2 -0 -1 -2 -0 -3 -0 -0 2 -1 -3 1 1 -1 -1 -0 -1 -3 2 2 -1 -1 -1 1 -2
3 1 2 -3 -1 3 -7 0 1 3 -2 1 0 1 -2 1 -2 -1 -1 -3 -2 1 1 1 -0 -4 -2 2 0 0 -3 -0 -1 1 -0 -3 -7 -2 0 -2 -1 -1 -1 -2 -4
2 -1 -0 -3 -0 2 -3 -2 4 1 2 -1 1 3 -3 2 1 -1 -1 -0 -4 -2 1 2 -0 -1 0 -2 -3 -0 -1 1 -1 -0 -1 -1 -4 -2 2 2 0 -0 -1 -1 -0
-3 4 -2 4 -2 1 -1 2 0 4 1 -2 1 2 0 -1 -1 -2 -1 -1 -4 1 1 1 2 -2 -2 -3 -5 -2 0 -1 -1 -5 2 1 -5 -3 -1 3 -4 -1 0 -1 -2
-1 3 -3 -2 5 -5 5 -7 -1 -0 1 -2 -0 -0 -1 -1 -2 -2 -2 -0 0 3 -0 0 -7 -2 -2 -1 -0 0 1 0 -0 -1 0 -2 -1 -5 -2 7 1 -1 -1 -2 -4
1 2 -4 2 -0 -0 -0 -3 -1 -2 -3 -2 -0 0 -0 -1 -0 -0 -1 -1 1 -0 1 -7 -2 -1 -0 0 0 0 1 -2 -1 0 3 -1 -5 -3 0 -5 -7 -3 -2 -3 3
4 3 -3 1 3 1 1 -1 0 4 -2 1 -1 2 -2 1 0 -2 -2 -1 0 0 -0 -3 -3 -0 0 -0 1 -0 -0 -0 -1 -1 -1 1 -5 0 -1 1 1 -1 -0 2 -2
4 3 -1 -1 -1 2 -1 -1 2 1 -7 -5 -2 -2 1 1 -2 -1 -1 -1 -1 -2 0 -2 0 -0 0 0 -2 0 0 0 0 -2 -3 -6 -8 -2 -1 -1 1 -1 -2 -3 -3
-2 -2 1 -0 -0 -1 -1 1 -1 -1 -6 0 1 -0 1 -1 0 -2 1 1 -1 -1 -7 -11 0 0 1 -3 -1 -6 -0 0 0 0 -0 -1 -5 -16 -0 -1 -3 -4 -4 -4 -2
2 1 -1 -3 -2 -1 2 1 2 -16 -7 -0 0 -1 -0 1 0 -0 0 1 2 0 1 -2 0 -0 -4 -0 -1 -0 -0 -0 -1 -1 -2 -4 -6 -9 -3 -8 -1 -2 -3 -4 -2
-2 -0 -2 1 -1 -0 0 2 -13 -6 -2 -0 -1 1 -0 -0 0 1 -0 -0 -3 -2 -1 -1 -1 0 -1 -1 -1 -2 -3 -3 -3 -4 -7 -0 -1 -17 -3 -2 -5 -5 -5 -2 0
-3 0 -1 -1 -0 1 -1 -9 -0 -5 -0 -1 -0 -0 -1 -1 -2 -0 -1 -1 1 -1 -1 -1 -8 -1 -0 -2 -5 -2 -6 -4 -2 -2 -4 -1 -5 -22 -4 -1 1 1 1 2 -1
-3 -2 -2 3 -0 1 -1 -3 -7 -0 -0 -0 -1 1 -1 0 -0 1 -0 -1 -1 -2 -6 -1 -2 0 -1 0 -5 -1 -1 -5 -1 -1 -3 -5 -10 -10 0 0 1 1 0 -3 -2
-1 -2 -4 -1 -1 -1 -6 -4 0 -0 -1 -0 -1 -1 0 -1 1 1 -0 -2 0 -0 -0 -1 -3 -1 -0 -1 -0 -2 -2 -5 -3 -2 -1 -5 -2 -10 -1 -3 -1 -0 -4 -3 1
-1 -2 2 1 1 0 -4 -4 0 1 -0 -0 -0 -0 -1 -0 -1 -1 -5 -2 -0 1 -0 -0 -4 -3 -2 -2 -5 -2 0 1 -4 -4 -4 -2 -12 -6 -3 -3 -3 -4 -4 -3 -1
-2 -3 0 -0 -2 2 -1 -2 0 -1 -0 -1 -0 1 -0 -0 0 1 -1 0 2 -2 -1 -2 -3 -1 -10 -1 -1 -1 -3 -3 -5 -5 -2 -4 -21 -1 -1 -1 -1 -4 -4 -3 -3
-1 -3 1 2 -3 -1 -3 -0 -1 1 -1 1 -0 -0 0 -0 -1 1 -0 -1 0 -0 -1 -3 -3 -2 -9 -5 -2 0 -1 -1 -1 -2 -3 -3 -18 -1 0 0 1 -1 -0 -1 -0
1 -5 1 3 4 -2 -0 -2 -1 1 0 1 -2 0 1 1 -1 -4 -0 0 0 0 -0 -0 -0 -5 -7 -7 -4 1 1 -0 -3 0 -3 -10 -10 -11 -3 -1 -3 -2 -2 -2 -1
1 -3 4 -3 -3 0 1 1 -0 -1 -0 2 -2 -1 -3 1 0 -1 -0 0 0 0 1 -4 -0 1 -2 -1 1 -1 -1 -0 0 -9 -3 -23 -1 -12 -2 -2 -5 -3 -3 -2 -4
-1 -1 0 -1 1 2 0 -3 -1 -2 -4 -2 1 -1 1 -0 -5 -1 0 -0 -5 2 -0 0 -4 1 -2 -1 1 0 -1 0 -0 -2 2 3 -12 -3 -10 1 -1 -1 2 -1 -3
6 5 2 -2 -1 -1 -3 -3 -2 1 -0 1 -3 -0 2 -6 2 -1 1 -1 -3 -7 -1 -1 -0 -0 -5 0 -1 -2 -11 -3 -1 -0 -5 -0 -34 -2 -4 -2 -4 -3 0 -3 -4
Height
1558 1560 1561 1561 1562 1563 1564 1565 1566 1566 1565 1566 1566 1567 1567 1566 1564 1564 1563 1565 1564 1562 1562 1561 1560 1561 1562 1561 1561 1561 1570 1579 1574 1579 1578 1578 1581 1583 1584 1585 1587 1587 1586 1587 1589
1559 1562 1561 1563 1563 1565 1565 1567 1567 1567 1566 1568 1567 1567 1567 1567 1565 1564 1565 1564 1564 1563 1562 1561 1560 1561 1562 1562 1562 1562 1574 1572 1571 1570 1573 1576 1579 1581 1585 1585 1586 1585 1584 1585 1587
1562 1563 1563 1564 1565 1565 1567 1568 1567 1568 1567 1569 1568 1568 1568 1566 1567 1566 1565 1564 1564 1563 1562 1560 1560 1561 1561 1563 1564 1565 1573 1571 1572 1571 1571 1575 1579 1580 1581 1584 1579 1579 1581 1583 1585
1562 1564 1564 1565 1565 1567 1569 1568 1568 1568 1568 1569 1569 1568 1567 1566 1571 1567 1565 1564 1563 1562 1561 1559 1559 1559 1562 1565 1565 1569 1571 1570 1572 1572 1573 1575 1577 1578 1578 1576 1575 1575 1578 1579 1581
1563 1564 1565 1566 1566 1568 1570 1568 1569 1568 1568 1569 1569 1568 1568 1567 1568 1567 1565 1564 1562 1561 1559 1558 1557 1558 1563 1565 1566 1569 1572 1572 1573 1573 1574 1575 1576 1576 1573 1574 1574 1574 1575 1576 1577
1565 1565 1566 1568 1568 1569 1569 1568 1569 1569 1568 1569 1569 1569 1567 1568 1567 1566 1565 1564 1562 1561 1560 1558 1559 1558 1562 1566 1567 1569 1571 1573 1574 1574 1574 1575 1575 1575 1568 1570 1571 1571 1572 1573 1573
1566 1566 1568 1569 1569 1569 1569 1570 1569 1568 1568 1568 1570 1569 1568 1567 1566 1565 1565 1564 1562 1562 1560 1560 1559 1559 1563 1567 1569 1570 1575 1575 1574 1574 1574 1574 1575 1568 1565 1566 1567 1568 1569 1570 1571
1567 1568 1569 1570 1571 1570 1568 1571 1570 1568 1566 1568 1568 1570 1568 1566 1565 1565 1564 1564 1563 1563 1562 1561 1560 1560 1563 1567 1570 1572 1574 1579 1570 1572 1573 1574 1571 1560 1561 1563 1563 1564 1564 1565 1566
1568 1569 1569 1570 1571 1570 1570 1570 1569 1567 1566 1567 1567 1570 1569 1567 1565 1565 1565 1565 1564 1564 1563 1562 1560 1561 1566 1570 1576 1572 1581 1575 1574 1570 1571 1573 1567 1559 1559 1559 1558 1558 1559 1560 1562
1569 1569 1570 1570 1570 1571 1570 1568 1569 1567 1566 1565 1566 1573 1570 1568 1565 1565 1565 1564 1564 1564 1563 1562 1561 1563 1567 1574 1584 1575 1574 1567 1570 1568 1569 1571 1565 1558 1557 1556 1553 1554 1555 1555 1556
1568 1570 1570 1571 1571 1570 1570 1567 1570 1569 1565 1565 1566 1569 1567 1566 1565 1565 1565 1564 1563 1564 1564 1560 1566 1571 1566 1564 1563 1564 1566 1567 1566 1562 1566 1565 1559 1552 1549 1551 1550 1549 1550 1549 1548
1571 1570 1569 1571 1570 1570 1568 1567 1568 1569 1565 1564 1566 1567 1566 1565 1564 1564 1565 1564 1563 1565 1560 1564 1568 1562 1562 1562 1563 1563 1566 1567 1564 1563 1565 1560 1555 1545 1542 1539 1540 1542 1543 1543 1545
1571 1570 1570 1571 1569 1569 1568 1568 1569 1568 1565 1565 1566 1566 1566 1565 1563 1562 1563 1563 1562 1561 1561 1566 1563 1561 1561 1562 1564 1563 1567 1565 1566 1562 1560 1559 1556 1542 1538 1538 1537 1537 1537 1538 1538
1570 1569 1569 1569 1571 1569 1568 1570 1569 1567 1574 1567 1565 1565 1564 1563 1563 1561 1561 1563 1561 1561 1560 1561 1560 1561 1562 1564 1563 1569 1563 1563 1565 1570 1573 1556 1572 1546 1538 1536 1533 1530 1531 1531 1532
1568 1569 1568 1568 1568 1568 1570 1570 1568 1568 1592 1566 1564 1564 1563 1564 1563 1561 1561 1561 1560 1560 1562 1563 1561 1562 1564 1561 1560 1565 1563 1565 1565 1569 1568 1559 1572 1545 1536 1535 1529 1524 1524 1524 1526
1568 1568 1568 1568 1568 1569 1569 1568 1568 1578 1585 1564 1561 1562 1562 1561 1561 1560 1561 1561 1560 1558 1558 1558 1558 1558 1558 1559 1560 1562 1564 1566 1567 1573 1580 1558 1562 1546 1537 1523 1519 1516 1517 1518 1519
1567 1567 1568 1567 1568 1568 1567 1568 1578 1586 1561 1564 1561 1559 1560 1560 1559 1559 1560 1562 1564 1565 1567 1560 1559 1557 1557 1560 1560 1563 1572 1583 1576 1582 1573 1550 1558 1534 1514 1510 1507 1508 1510 1511 1514
1566 1566 1567 1567 1568 1567 1567 1568 1580 1560 1562 1558 1558 1558 1562 1556 1557 1559 1559 1563 1555 1558 1567 1569 1568 1559 1556 1557 1560 1564 1569 1581 1570 1578 1567 1551 1559 1523 1504 1502 1503 1504 1505 1508 1508
1565 1566 1566 1567 1567 1567 1567 1580 1573 1561 1558 1559 1559 1562 1561 1557 1559 1557 1559 1558 1553 1554 1565 1564 1557 1557 1556 1556 1558 1560 1567 1561 1567 1566 1573 1555 1533 1509 1503 1502 1502 1502 1502 1502 1503
1564 1564 1564 1565 1566 1567 1569 1573 1561 1557 1557 1558 1563 1560 1561 1560 1561 1561 1554 1551 1553 1552 1552 1556 1565 1555 1557 1557 1557 1557 1559 1567 1572 1570 1571 1555 1539 1520 1507 1502 1499 1499 1497 1496 1498
1563 1563 1562 1562 1564 1566 1573 1569 1558 1558 1558 1560 1560 1559 1558 1557 1557 1557 1552 1550 1549 1553 1553 1554 1558 1560 1557 1558 1555 1562 1561 1560 1564 1568 1571 1568 1538 1500 1494 1490 1491 1490 1490 1490 1491
1562 1563 1561 1561 1565 1563 1565 1559 1558 1557 1558 1558 1559 1559 1557 1555 1555 1556 1552 1549 1549 1550 1555 1552 1559 1562 1553 1546 1546 1546 1550 1552 1563 1554 1561 1566 1534 1489 1487 1484 1484 1485 1485 1486 1485
1561 1561 1560 1560 1566 1565 1558 1556 1555 1555 1556 1557 1557 1557 1555 1555 1559 1552 1547 1549 1549 1550 1553 1554 1560 1564 1551 1550 1547 1547 1545 1543 1546 1552 1553 1559 1519 1486 1484 1485 1483 1482 1482 1481 1479
1562 1560 1558 1558 1557 1557 1558 1556 1555 1553 1553 1553 1553 1553 1554 1555 1552 1551 1547 1549 1550 1550 1551 1552 1556 1553 1552 1539 1540 1545 1540 1539 1542 1555 1544 1529 1498 1485 1485 1484 1480 1478 1477 1475 1473
1561 1558 1556 1558 1556 1555 1557 1554 1554 1554 1552 1551 1551 1551 1553 1556 1550 1550 1546 1550 1550 1549 1550 1552 1556 1548 1539 1536 1535 1532 1531 1532 1536 1521 1529 1495 1506 1477 1476 1478 1474 1473 1470 1468 1466
1560 1559 1557 1555 1553 1553 1552 1551 1550 1549 1549 1550 1551 1546 1549 1551 1546 1546 1543 1548 1544 1549 1549 1548 1548 1541 1537 1529 1529 1531 1521 1518 1515 1510 1507 1498 1494 1462 1471 1471 1468 1465 1463 1461 1459
1559 1558 1558 1555 1552 1553 1551 1548 1546 1546 1543 1542 1543 1545 1546 1543 1541 1540 1538 1537 1536 1540 1546 1548 1549 1546 1542 1524 1524 1529 1505 1498 1495 1496 1493 1501 1469 1462 1466 1466 1462 1458 1458 1455 1452